User: anonymous   Login
Location: Newark
(48.5667°N, 7.8167°E)
Time: 07:02:23
(UTC+00:00)
Language:

FALCONSAT 3 - Orbit

View from above orbital plane
View from above orbital plane
View from above satellite
View from above satellite

Ground track
Ground track

The orbit data is extracted from the following two-line orbital elements,

1 30776U 07006E   21209.18004827  .00006121  00000-0  14487-3 0  9997
2 30776  35.4329 198.4100 0003541 269.5159  90.5164 15.41164680799392
Epoch (UTC): 28 July 2021 04:19:16
Eccentricity: 0.0003541
inclination: 35.4329°
perigee height: 440 km
apogee height: 445 km
right ascension of ascending node: 198.4100°
argument of perigee: 269.5159°
revolutions per day: 15.41164680
mean anomaly at epoch: 90.5164°
orbit number at epoch: 79939

The dashed part of the orbit path shows where the satellite is in the earth's shadow,  

DLR